• în România
  • Lista ţărilor
  • Pe 7 zile
  • Temperatura apei
  • Hartă satelitară
  • Meteo pe hartă
  • Widget-uri
  • user-avatar
    Intrare

    Meteo pe oră la Satu Mare

    Astăzi, 23 Septembrie, Sâmbătă

    Timp Temperatura Precipitaţii Vânt Presiune Umiditate
    00:00 +12°C° 0,7 mm 4 m/s 751 mmHg 83%
    01:00 +12°C° 0,7 mm 3 m/s 750 mmHg 86%
    02:00 +13°C° 0 mm 2 m/s 750 mmHg 91%
    03:00 +11°C° 2,1 mm 3 m/s 750 mmHg 92%
    04:00 +11°C° 2,1 mm 3 m/s 750 mmHg 92%
    05:00 +11°C° 2,1 mm 4 m/s 749 mmHg 93%
    06:00 +11°C° 1 mm 4 m/s 750 mmHg 93%
    07:00 +11°C° 1 mm 4 m/s 750 mmHg 93%
    08:00 +11°C° 0 mm 4 m/s 750 mmHg 93%
    09:00 +11°C° 0,3 mm 4 m/s 750 mmHg 92%
    10:00 +11°C° 0,3 mm 3 m/s 751 mmHg 92%
    11:00 +12°C° 0,3 mm 3 m/s 751 mmHg 91%
    12:00 +12°C° 0,2 mm 3 m/s 751 mmHg 91%
    13:00 +13°C° 0,2 mm 2 m/s 752 mmHg 90%
    14:00 +13°C° 0,2 mm 2 m/s 752 mmHg 89%
    15:00 +13°C° 0,2 mm 2 m/s 752 mmHg 90%
    16:00 +13°C° 0,2 mm 1 m/s 752 mmHg 90%
    17:00 +13°C° 0,2 mm 1 m/s 752 mmHg 90%
    18:00 +12°C° 0 mm 1 m/s 753 mmHg 91%
    19:00 +12°C° 0 mm 1 m/s 753 mmHg 93%
    20:00 +11°C° 0 mm 1 m/s 753 mmHg 94%
    21:00 +11°C° 0 mm 1 m/s 753 mmHg 94%
    22:00 +11°C° 0 mm 1 m/s 753 mmHg 94%
    23:00 +11°C° 0 mm 1 m/s 754 mmHg 94%

    Mâine, 24 Septembrie, Duminică

    Timp Temperatura Precipitaţii Vânt Presiune Umiditate
    00:00 +11°C° 0 mm 1 m/s 754 mmHg 94%
    01:00 +11°C° 0 mm 1 m/s 754 mmHg 93%
    02:00 +10°C° 0 mm 1 m/s 754 mmHg 93%
    03:00 +10°C° 0 mm 1 m/s 754 mmHg 93%
    04:00 +10°C° 0 mm 1 m/s 754 mmHg 93%
    05:00 +10°C° 0 mm 1 m/s 754 mmHg 93%
    06:00 +10°C° 0 mm 0 m/s 754 mmHg 91%
    07:00 +10°C° 0 mm 0 m/s 754 mmHg 89%
    08:00 +11°C° 0 mm 0 m/s 754 mmHg 87%
    09:00 +12°C° 0 mm 0 m/s 754 mmHg 82%
    10:00 +14°C° 0 mm 0 m/s 754 mmHg 76%
    11:00 +16°C° 0 mm 1 m/s 754 mmHg 70%
    12:00 +18°C° 0 mm 1 m/s 754 mmHg 67%
    13:00 +19°C° 0 mm 1 m/s 754 mmHg 63%
    14:00 +20°C° 0 mm 1 m/s 754 mmHg 60%
    15:00 +19°C° 0 mm 1 m/s 754 mmHg 61%
    16:00 +19°C° 0 mm 1 m/s 754 mmHg 61%
    17:00 +19°C° 0 mm 1 m/s 754 mmHg 62%
    18:00 +15°C° 0 mm 0 m/s 754 mmHg 68%
    19:00 +14°C° 0 mm 0 m/s 754 mmHg 74%
    20:00 +12°C° 0 mm 0 m/s 754 mmHg 80%
    21:00 +13°C° 0 mm 1 m/s 755 mmHg 82%
    22:00 +13°C° 0 mm 1 m/s 755 mmHg 83%
    23:00 +12°C° 0 mm 1 m/s 755 mmHg 85%

    Poimâine, 25 Septembrie, Luni

    Timp Temperatura Precipitaţii Vânt Presiune Umiditate
    00:00 +12°C° 0 mm 1 m/s 755 mmHg 86%
    01:00 +12°C° 0 mm 1 m/s 755 mmHg 87%
    02:00 +12°C° 0 mm 1 m/s 755 mmHg 87%
    03:00 +11°C° 0 mm 1 m/s 756 mmHg 88%
    04:00 +11°C° 0 mm 1 m/s 756 mmHg 89%
    05:00 +11°C° 0 mm 1 m/s 756 mmHg 89%
    06:00 +12°C° 0 mm 2 m/s 756 mmHg 86%
    07:00 +12°C° 0 mm 2 m/s 756 mmHg 82%
    08:00 +13°C° 0 mm 2 m/s 756 mmHg 79%
    09:00 +15°C° 0 mm 2 m/s 756 mmHg 70%
    10:00 +17°C° 0 mm 2 m/s 756 mmHg 62%
    11:00 +20°C° 0 mm 3 m/s 756 mmHg 53%
    12:00 +21°C° 0 mm 2 m/s 756 mmHg 50%
    13:00 +21°C° 0 mm 2 m/s 756 mmHg 47%
    14:00 +23°C° 0 mm 2 m/s 756 mmHg 44%
    15:00 +23°C° 0 mm 2 m/s 756 mmHg 47%
    16:00 +23°C° 0 mm 1 m/s 756 mmHg 50%
    17:00 +23°C° 0 mm 1 m/s 756 mmHg 53%
    18:00 +21°C° 0 mm 1 m/s 756 mmHg 56%
    19:00 +19°C° 0 mm 1 m/s 756 mmHg 60%
    20:00 +16°C° 0 mm 2 m/s 757 mmHg 63%
    21:00 +16°C° 0 mm 2 m/s 757 mmHg 65%
    22:00 +15°C° 0 mm 2 m/s 757 mmHg 67%
    23:00 +15°C° 0 mm 2 m/s 757 mmHg 68%

    26 Septembrie, Marţi

    Timp Temperatura Precipitaţii Vânt Presiune Umiditate
    00:00 +14°C° 0 mm 2 m/s 757 mmHg 69%
    01:00 +14°C° 0 mm 2 m/s 757 mmHg 70%
    02:00 +14°C° 0 mm 2 m/s 757 mmHg 71%
    03:00 +14°C° 0 mm 2 m/s 757 mmHg 72%
    04:00 +13°C° 0 mm 2 m/s 757 mmHg 72%
    05:00 +13°C° 0 mm 2 m/s 757 mmHg 72%
    06:00 +14°C° 0 mm 2 m/s 757 mmHg 71%
    07:00 +15°C° 0 mm 2 m/s 757 mmHg 69%
    08:00 +16°C° 0 mm 2 m/s 757 mmHg 67%
    09:00 +18°C° 0 mm 2 m/s 757 mmHg 61%
    10:00 +20°C° 0 mm 2 m/s 757 mmHg 54%
    11:00 +23°C° 0 mm 2 m/s 757 mmHg 47%
    12:00 +24°C° 0 mm 2 m/s 757 mmHg 45%
    13:00 +25°C° 0 mm 2 m/s 756 mmHg 44%
    14:00 +26°C° 0 mm 2 m/s 756 mmHg 42%
    15:00 +25°C° 0 mm 2 m/s 756 mmHg 45%
    16:00 +25°C° 0 mm 2 m/s 756 mmHg 48%
    17:00 +24°C° 0 mm 2 m/s 756 mmHg 52%
    18:00 +21°C° 0 mm 2 m/s 756 mmHg 55%
    19:00 +20°C° 0 mm 2 m/s 756 mmHg 58%
    20:00 +18°C° 0 mm 2 m/s 757 mmHg 61%
    21:00 +17°C° 0 mm 3 m/s 757 mmHg 62%
    22:00 +16°C° 0 mm 3 m/s 757 mmHg 62%
    23:00 +16°C° 0 mm 3 m/s 757 mmHg 63%

    27 Septembrie, Miercuri

    Timp Temperatura Precipitaţii Vânt Presiune Umiditate
    00:00 +14°C° 0 mm 3 m/s 757 mmHg 63%
    01:00 +14°C° 0 mm 3 m/s 757 mmHg 63%
    02:00 +14°C° 0 mm 2 m/s 758 mmHg 62%
    03:00 +14°C° 0 mm 2 m/s 758 mmHg 62%
    04:00 +13°C° 0 mm 2 m/s 758 mmHg 62%
    05:00 +13°C° 0 mm 2 m/s 758 mmHg 62%
    06:00 +13°C° 0 mm 2 m/s 758 mmHg 61%
    07:00 +14°C° 0 mm 2 m/s 758 mmHg 60%
    08:00 +14°C° 0 mm 2 m/s 758 mmHg 58%
    09:00 +17°C° 0 mm 2 m/s 758 mmHg 51%
    10:00 +19°C° 0 mm 2 m/s 758 mmHg 44%
    11:00 +21°C° 0 mm 2 m/s 758 mmHg 38%
    12:00 +23°C° 0 mm 2 m/s 758 mmHg 35%
    13:00 +23°C° 0 mm 2 m/s 758 mmHg 33%
    14:00 +24°C° 0 mm 2 m/s 758 mmHg 30%
    15:00 +24°C° 0 mm 2 m/s 758 mmHg 34%
    16:00 +23°C° 0 mm 2 m/s 758 mmHg 38%
    17:00 +22°C° 0 mm 1 m/s 758 mmHg 41%
    18:00 +20°C° 0 mm 2 m/s 758 mmHg 44%
    19:00 +18°C° 0 mm 2 m/s 758 mmHg 47%
    20:00 +16°C° 0 mm 2 m/s 759 mmHg 50%
    21:00 +15°C° 0 mm 2 m/s 759 mmHg 53%
    22:00 +15°C° 0 mm 2 m/s 759 mmHg 55%
    23:00 +14°C° 0 mm 2 m/s 759 mmHg 58%

    28 Septembrie, Joi

    Timp Temperatura Precipitaţii Vânt Presiune Umiditate
    00:00 +14°C° 0 mm 2 m/s 760 mmHg 59%
    01:00 +13°C° 0 mm 2 m/s 760 mmHg 61%
    02:00 +13°C° 0 mm 2 m/s 760 mmHg 62%
    03:00 +12°C° 0 mm 2 m/s 760 mmHg 64%
    04:00 +12°C° 0 mm 2 m/s 760 mmHg 65%
    05:00 +12°C° 0 mm 2 m/s 760 mmHg 66%
    06:00 +12°C° 0 mm 2 m/s 760 mmHg 65%
    07:00 +13°C° 0 mm 2 m/s 760 mmHg 65%
    08:00 +14°C° 0 mm 2 m/s 760 mmHg 64%
    09:00 +16°C° 0 mm 2 m/s 760 mmHg 58%
    10:00 +18°C° 0 mm 2 m/s 760 mmHg 52%
    11:00 +20°C° 0 mm 2 m/s 760 mmHg 46%
    12:00 +20°C° 0 mm 2 m/s 760 mmHg 44%
    13:00 +21°C° 0 mm 2 m/s 760 mmHg 42%
    14:00 +23°C° 0 mm 1 m/s 759 mmHg 41%
    15:00 +22°C° 0 mm 1 m/s 759 mmHg 44%
    16:00 +22°C° 0 mm 1 m/s 759 mmHg 46%
    17:00 +21°C° 0 mm 1 m/s 759 mmHg 49%
    18:00 +20°C° 0 mm 1 m/s 760 mmHg 52%
    19:00 +18°C° 0 mm 1 m/s 760 mmHg 54%
    20:00 +15°C° 0 mm 2 m/s 760 mmHg 57%
    21:00 +14°C° 0 mm 2 m/s 761 mmHg 58%
    22:00 +14°C° 0 mm 2 m/s 761 mmHg 59%
    23:00 +12°C° 0 mm 3 m/s 761 mmHg 61%
    Arată mai mult